GALAXY 13 (HORIZONS-1) (27954 NORAD) Tracking and Keplerian Element Data

This shows tracking and keplerian element data for the satellite.

Feedback or suggestion? Click here.




ElementValue
Catalog27954
NameGALAXY 13 (HORIZONS-1)
Epoch Orbit4157
Epoch Day34.7252765
Epoch Year2025
RAAN95.8399
Inclination0.1268
Eccentricity0.0002239
Argument of Perigee252.2112
Mean Anonmoly257.1733
Mean Motion1.00274304
Decay Rate1.37E-06
L11 27954U 03044A 25034.72527650 .00000137 00000+0 00000+0 0 9995
L22 27954 0.1268 95.8399 0002239 252.2112 257.1733 1.00274304 41576



Live tracking and technical data element details for GALAXY 13 (HORIZONS-1) (NORAD 27954). GALAXY 13 (HORIZONS-1) can be tracked NOW for your location showing map with azimuth and elevation plus other details from your city location.







IsCatalogInMostPopularTable: catalog: 27954, numindb: 315
Update: records affected: 1



GetName: 27954 GALAXY 13 (HORIZONS-1)

Hit Count: updated at: Thu, 15 May 2025 20:08:35 GMT